Location: Oklahoma City
(35.4680°N, 97.5160°W)
Time: 03:18:28
(UTC-05:00)

ISS - Visible Passes

Search period start: 02 August 2015 00:00
Search period end: 12 August 2015 00:00
Orbit: 401 x 403 km, 51.6° (Epoch: 02 August)

Date Brightness Start Highest point End Pass type
(mag) Time Alt. Az. Time Alt. Az. Time Alt. Az.
02 Aug -2.6 05:15:19 33° SSW 05:15:19 33° SSW 05:17:39 10° SSE visible
02 Aug -1.0 21:48:59 10° W 21:51:48 26° NNW 21:54:36 10° NNE visible
03 Aug -2.3 20:55:31 10° WSW 20:58:41 50° NW 21:01:52 10° NE visible
04 Aug -0.2 21:40:34 10° WNW 21:42:26 14° NNW 21:44:15 10° N visible
